Regional Weather Roundup
Issued by NWS

Home | Current Version | Previous Version | Graphics & Text | Print | Product List | Glossary On
Versions: 1 2 3 4 5 6 7 8 9 10 11 12 13 14 15 16 17 18 19 20 21 22 23 24 25 26 27
000
ASUS45 KBOU 271207
RWRCO

WEATHER ROUNDUP FOR COLORADO
NATIONAL WEATHER SERVICE DENVER/BOULDER CO
600 AM MDT WED JUL 27 2016

NOTE: "FAIR" INDICATES FEW OR NO CLOUDS BELOW 12000 FEET WITH NO
SIGNIFICANT WEATHER AND/OR OBSTRUCTIONS TO VISIBILITY.

COZ001>005-013-030-031-271300-
...NORTHWEST COLORADO...

CITY           SKY/WX    TMP DP  RH WIND       PRES   REMARKS
CRAIG          FAIR      43  38  82 SW6       30.27R
HAYDEN         FAIR      52  37  58 E9        30.29S
MEEKER         FAIR      49  40  71 NE3       30.29R
MOUNT WERNER   NOT AVBL
STEAMBOAT SPGS FAIR      46  39  76 CALM      30.32S
WALDEN         FAIR      39  32  75 NE6       30.43S
$$

COZ006>008-011-271300-
...WEST CENTRAL VALLEYS...

CITY           SKY/WX    TMP DP  RH WIND       PRES   REMARKS
GRAND JUNCTION FAIR      65  42  43 E6        30.16R
MONTROSE       FAIR      57  42  57 S6        30.26R
EAGLE          FAIR      48  39  71 CALM      30.38R
RIFLE          FAIR      55  41  59 NE5       30.25R
DELTA          FAIR      64  42  45 NE6       30.22R
NUCLA          FAIR      59  41  51 SE7       30.29S
$$

COZ017>023-064>068-271300-
...SOUTHWEST COLORADO...

CITY           SKY/WX    TMP DP  RH WIND       PRES   REMARKS
DURANGO        FAIR      51  47  86 NE3       30.32R
CORTEZ         FAIR      54  44  69 E5        30.25S
PAGOSA SPRINGS FAIR      48  44  86 NE3       30.40R
TELLURIDE      FAIR      52  39  62 SE6       30.51S
WOLF CREEK PAS FAIR      50  32  50 W5        30.71S
$$

COZ009-010-012-014-032>034-037-058>063-271300-
...CENTRAL COLORADO...

CITY           SKY/WX    TMP DP  RH WIND       PRES   REMARKS
ASPEN          FAIR      49  38  65 S3        30.40R
BUENA VISTA    FAIR      45  35  66 W5        30.42S
COPPER MTN     FAIR      54  27  35 W3        30.71R
BERTHOUD PASS  FAIR      45  32  61 N13       30.74R
COTTONWOOD PAS FAIR      59  32  36 W10       30.54R
GUNNISON       FAIR      45  37  76 CALM      30.47R
KREMMLING      FAIR      37  36  93 NW3       30.44R
LEADVILLE      FAIR      37  30  75 NE7       30.54R
MONARCH PASS   FAIR      46  32  57 W14       30.79R
SALIDA         FAIR      50  40  68 W5        30.47R
SUNLIGHT       FAIR      55  32  41 MISG      30.64R
WILKERSON PASS FAIR      52  27  37 NW5       30.67R
$$

COZ069>075-271300-
...SAN LUIS VALLEY/SANGRE DE CRISTO MOUNTAINS...

CITY           SKY/WX    TMP DP  RH WIND       PRES   REMARKS
ALAMOSA        FAIR      46  42  86 SW3       30.37R
LA VETA PASS   CLOUDY    54  41  62 W3        30.55R
SAGUACHE       FAIR      50  39  66 NW9       30.41R
$$

COZ035-036-038>040-271300-
...NORTHERN COLORADO FRONT RANGE...

CITY           SKY/WX    TMP DP  RH WIND       PRES   REMARKS
DENVER INTL AP FAIR      62  47  57 W8        30.18R
DMNS CITY PARK   N/A     61  46  57 S2        30.18S
AURORA         PTCLDY    61  56  84 SW7       30.20R
FRONT RANGE AP NOT AVBL
ERIE MUNI ARPT FAIR      54  48  81 CALM      30.17S
BOULDER MUN AP FAIR      59  41  51 S5        30.17F
CENTENNIAL     FAIR      62  45  53 W8        30.22R
BROOMFIELD     PTCLDY    64  43  45 NW7       30.20R
LONGMONT       FAIR      57  43  59 W5        30.18S
$$

COZ041-046-047-076>085-087-088-271300-
...PIKES PEAK/PALMER DIVIDE AND SOUTHERN FOOTHILLS...

CITY           SKY/WX    TMP DP  RH WIND       PRES   REMARKS
COLO. SPRINGS  MOCLDY    58  54  86 N5        30.28R
A. F. ACADEMY  CLOUDY    61  58  89 W3        30.29R
SCHRIEVER AFB  NOT AVBL
ELLICOTT       FAIR     N/A N/A N/A CALM      30.25S
FALCON         NOT AVBL
FORT CARSON    CLOUDY    59  56  91 CALM      30.24S
LIMON          NOT AVBL
MONUMENT HILL  FAIR      55  55 100 SW12      30.32R FOG
TRINIDAD       NOT AVBL
$$

COZ042>045-048>051-090-091-271300-
...NORTHEAST COLORADO...

CITY           SKY/WX    TMP DP  RH WIND       PRES   REMARKS
GREELEY ARPT   FAIR      54  50  87 N7        30.15R
AKRON          FAIR      62  56  80 E9        30.18R
BURLINGTON     FAIR      63  58  83 E12       30.15R
WRAY           NOT AVBL
STERLING       FAIR      64  57  77 SE10      30.13R
HOLYOKE        FAIR      61  57  88 W5        30.14F
FORT MORGAN    FAIR      60  57  89 E8        30.15S
$$

COZ086-089-092>099-271300-
...SOUTHEAST COLORADO...

CITY           SKY/WX    TMP DP  RH WIND       PRES   REMARKS
PUEBLO         FAIR      64  59  83 N6        30.17S
LA JUNTA       CLOUDY    71  56  58 SW13      30.12R
LAMAR          FAIR      70  57  63 CALM      30.06R
SPRINGFIELD      N/A     68  56  65 SE8       30.12S
$$




USA.gov is the U.S. government's official web portal to all federal, state and local government web resources and services.